Location: Canet
(43.3261°N, 5.3723°E)
Time: 19:36:32
(UTC+00:00)

X-37B - Pass Details

Date: 24 January 2021
Orbit: 383 x 391 km, 45.0° (Epoch: 27 February)

Event Time Altitude Azimuth Distance (km) Brightness Sun altitude
Rises 18:24:24 0° 274° (W) 2,273 6.0 -18.9°
Reaches altitude 10° 18:26:29 10° 278° (W) 1,420 4.5 -19.3°
Enters shadow 18:29:28 59° 340° (NNW) 455 0.9 -19.8°
